Вернуться в каталог

COSMOS 546

АктивенНавигацияVLEO
NORAD 6350·PAYLOAD·🇷🇺 Russia

Запущен Jan 26, 1973 с Kapustin Yar

Loading…

Ближайшие Пролёты (ближайшие 24 часа)

TLE

СвежийSource: Space-Track

Эпоха: Sep 13, 2026, 22:13 UTC

1  6350U 73005A   26256.92577425  .00001588  00000-0  65217-4 0  9998
2  6350  50.6345  86.0833 0014635 277.8965  82.0341 15.30443579956818

Отслеживайте COSMOS 546 в реальном времени с AllMySat

Download on the App Store